Regional Weather Roundup
Issued by NWS

Home | Current Version | Previous Version | Text Only | Print | Product List | Glossary On
Versions: 1 2 3 4 5 6 7 8 9 10 11 12 13 14 15 16 17 18 19 20 21 22 23 24 25 26 27 28 29 30 31 32 33 34 35 36 37 38 39 40 41 42 43 44 45 46 47 48 49 50
000
ASCA44 KEWX 131520
RWRMX

LATIN AMERICA AND CARIBBEAN REGIONAL WEATHER ROUNDUP
NATIONAL WEATHER SERVICE AUSTIN/SAN ANTONIO TX
900 AM CST SAT FEB 13 2016

NOTE: "FAIR" INDICATED FEW OR NO CLOUDS BELOW 12,000 FEET WITH NO
SIGNIFICANT WEATHER AND/OR OBSTRUCTIONS TO VISIBILITY.

BAJA CALIFORNIA

CITY           SKY/WX    TMP DP  RH WIND       PRES   REMARKS
LORETO         MOSUNNY   75  55  50 N6        29.97S
LA PAZ         MOSUNNY   54  39  58 CALM      30.02
MEXICALI       CLEAR     50  25  37 N3        30.05
S.J. DEL CABO  SUNNY     70  34  26 W9        29.98
TIJUANA        FOG       48  45  87 W8        30.12R VSB 1/16WCI  45

NORTHWESTERN MEXICO

CITY           SKY/WX    TMP DP  RH WIND       PRES   REMARKS
CULIACAN       MOSUNNY   68  59  73 NE7       29.96
DURANGO        PTSUNNY   43  12  28 CALM      30.43
GUAYMAS        SUNNY     68  45  42 CALM      29.94
HERMOSILLO     SUNNY     55  34  44 CALM      30.03
CD. JUAREZ     MOSUNNY   46  27  46 CALM      30.28
LOS MOCHIS     PTSUNNY   63  57  82 CALM      29.96S
OBREGON        MOSUNNY   57  39  51 S2        29.94

NORTHEASTERN MEXICO

CITY           SKY/WX    TMP DP  RH WIND       PRES   REMARKS
CHIHUAHUA      MOSUNNY   39   7  26 S5        30.35  WCI  36
MATAMOROS      MOSUNNY   66  61  82 E5        30.33
MONCLOVA         N/A    N/A N/A N/A MISG        N/A
MONTERREY      PTSUNNY   57  52  82 CALM      30.27S
NUEVO LAREDO   CLOUDY    61  57  88 SE8       30.31
PIEDRAS NEGRAS CLOUDY    54  52  94 E6        30.31R
REYNOSA        FOG       59  59 100 E7        30.31  VSB 1/4
SALTILLO       SUNNY     55  27  33 CALM      30.41R
TORREON        PTSUNNY   55  23  28 CALM      30.32R
CD. VICTORIA   MOSUNNY   59  57  94 N3        30.31

WESTERN MEXICO

CITY           SKY/WX    TMP DP  RH WIND       PRES   REMARKS
AGUASCALIENTES SUNNY     43  19  39 N13       30.43  WCI  36
COLIMA         MOSUNNY   64  43  45 N14       30.08R
DEL BAJIO      MOSUNNY   54  19  26 CALM      30.43R
GUADALAJARA    PTSUNNY   55  19  24 CALM      30.34
MANZANILLO     MOSUNNY   72  66  83 N6        29.92R
MAZATLAN       MOSUNNY   72  68  88 NE3       29.97R
P. VALLARTA    PTSUNNY   66  63  88 N5        29.94S
URUAPAN        MOSUNNY   54  45  71 CALM      30.25R
ZACATECAS      MOSUNNY   43  19  39 CALM      30.43R

CENTRAL MEXICO

CITY           SKY/WX    TMP DP  RH WIND       PRES   REMARKS
CUERNAVACA     SUNNY     63  28  27 CALM      30.30R
MEXICO CITY    SUNNY     45  27  49 E6        30.47R WCI  41
MORELIA        SUNNY     50  18  27 CALM      30.37
POZA RICA      PTSUNNY   64  55  72 CALM      30.35R
PUEBLA         SUNNY     46  16  29 N7        30.43R WCI  43
QUERETARO      MOSUNNY   46  25  42 E6        30.47R WCI  43
S. LUIS POTOSI SUNNY     43  30  61 CALM      30.44R
TAMPICO        SUNNY     66  64  94 CALM      30.30S
TOLUCA         MOSUNNY   41  30  65 CALM      30.47S

SOUTHERN MEXICO

CITY           SKY/WX    TMP DP  RH WIND       PRES   REMARKS
ACAPULCO       SUNNY     79  64  61 N6        29.93S
B. DE HUATULCO SUNNY     75  54  46 CALM      30.01
OAXACA         SUNNY     54  32  43 CALM      30.40R
P. ESCONDIDO     N/A    N/A N/A N/A MISG        N/A
VERACRUZ       PTSUNNY   64  55  72 W6        30.28R
ZIHUATANEJO    SUNNY     75  64  69 CALM      29.93S

YUCATAN PENINSULA

CITY           SKY/WX    TMP DP  RH WIND       PRES   REMARKS
CAMPECHE       SUNNY     68  61  77 N12G23    30.23R
CANCUN         MOSUNNY   77  59  53 NE8       30.22R
CHETUMAL       MOSUNNY   68  61  77 NW9       30.21
CD. DEL CARMEN MOSUNNY   70  59  68 NE10      30.25
COZUMEL        MOSUNNY   73  63  68 NE17      30.21R
MERIDA         MOSUNNY   73  59  60 N12       30.25R
MINATITLAN     CLOUDY    73  68  83 N7        30.19
TAPACHULA      SUNNY     82  73  74 CALM      29.96R
TUX. GUTIERREZ SUNNY     64  55  72 NW3       30.19S
VILLAHERMOSA   PTSUNNY   70  66  88 E10       30.26R

CENTRAL AMERICA

CITY           SKY/WX    TMP DP  RH WIND       PRES   REMARKS
BELIZE CITY    MOSUNNY   70  63  78 N9        30.19R
MANAGUA        MOSUNNY   84  66  54 E23       29.92S DUSTDEVL

CARIBBEAN

CITY           SKY/WX    TMP DP  RH WIND       PRES   REMARKS
ARUBA          MOSUNNY   86  72  62 E25G37    29.94R HX  92
CURACAO        MOSUNNY   86  72  62 SE23G37   29.97S HX  92
KINGSTON       MOSUNNY   82  72  69 NW5       30.03S
NASSAU         MOSUNNY   75  63  64 NW6       30.23
SAN JUAN       MOSUNNY   82  70  65 E9G18     30.06F
SANTO DOMINGO  MOSUNNY   82  70  65 SE5       30.06S
ST. CROIX      MOSUNNY   84  66  54 E15       30.07F
ST. KITTS      MOSUNNY   82  68  61 E13       30.06S
ST. MAARTEN    PTSUNNY   81  68  65 E10       30.06S
ST. THOMAS     CLOUDY    79  68  69 SE13      30.07S

$$




USA.gov is the U.S. government's official web portal to all federal, state and local government web resources and services.